Location: Killam
(52.7910°N, 111.8608°W)
Time: 05:42:30
(UTC+00:00)

A-11 Canister half - Pass Details

Date: 25 February 2026
Orbit: 1524 x 1683 km, 47.3° (Epoch: 13 March)

Event Time Altitude Azimuth Distance (km) Brightness Sun altitude
Rises 22:24:09 0° 230° (SW) 4,758 13.2 19.2°
Reaches altitude 10° 22:27:23 10° 225° (SW) 3,755 13.6 18.9°
Maximum altitude 22:36:16 48° 155° (SSE) 1,933 10.0 17.9°
Drops below altitude 10° 22:45:01 10° 85° (E) 3,695 10.6 17.0°
Sets 22:48:10 0° 81° (E) 4,677 11.0 16.6°
